User: anonymous   Login
Location: Lipsett
(52.7836°N, 104.6863°W)
Time: 00:37:08
(UTC+00:00)
Language:

Envisat - Orbit

View from above orbital plane
View from above orbital plane
View from above satellite
View from above satellite

Ground track
Ground track

The orbit data is extracted from the following two-line orbital elements,

1 27386U 02009A   22271.50403615  .00000138  00000-0  58943-4 0  9990
2 27386  98.1951 247.8331 0001223  86.2977  23.9202 14.38157708 78272
Epoch (UTC): 28 September 2022 12:05:48
Eccentricity: 0.0001223
inclination: 98.1951°
perigee height: 764 km
apogee height: 765 km
right ascension of ascending node: 247.8331°
argument of perigee: 86.2977°
revolutions per day: 14.38157708
mean anomaly at epoch: 23.9202°
orbit number at epoch: 7827

The dashed part of the orbit path shows where the satellite is in the earth's shadow,  

DLR